Tracking 23731 objects as of 26-Sep-2021
HD Live streaming from Space Station
objects crossing your sky now

STARLINK-2589

Track STARLINK-2589 now!
10-day predictions
STARLINK-2589 is classified as:


NORAD ID: 48371
Int'l Code: 2021-038U
Perigee: 552.9 km
Apogee: 555.8 km
Inclination: 53.1 °
Period: 95.6 minutes
Semi major axis: 6925 km
RCS: Unknown
Launch date: May 4, 2021
Source: United States (US)
Launch site: AIR FORCE EASTERN TEST RANGE (AFETR)
aabbcc
Your satellite tracking list
Your tracking list is empty




NASA's NSSDC Master Catalog

Two Line Element Set (TLE):
1 48371U 21038U   21268.79795742  .00000563  00000-0  56733-4 0  9998
2 48371  53.0558  90.5197 0002109  87.6731 272.4500 15.06396411 22107
Source of the keplerian elements: AFSPC